Simultaneous Nadir Overpasses (SNOs) Predictions

Prediction of SNOs between AQUA and NPP Satellite Orbit:

Table of predicted SNOs for the next 14.0 days since TLE Epoch: 12/9/2011
Index Date (AQUA) Time (AQUA) Lat,Lon (AQUA) SZA (AQUA ) Date (NPP) Time (NPP) Lat,Lon (NPP) SZA (NPP ) Distance(km) Time Diff (sec)
1 12/10/2011 13:15:35 -75.20, 37.77 60.02 12/10/2011 13:14:35 -75.20, 37.80 59.97 1.05 60
2 12/10/2011 14:04:42 76.12,-151.91 119.02 12/10/2011 14:05:00 76.11,-152.01 119.03 2.91 18
3 12/13/2011 05:32:04 -75.26, 153.81 59.80 12/13/2011 05:31:25 -75.25, 153.72 59.74 2.73 39
4 12/13/2011 06:21:02 76.61, -34.41 118.77 12/13/2011 06:21:40 76.61, -34.43 118.74 0.64 38
5 12/15/2011 21:48:28 -75.62, -89.30 59.95 12/15/2011 21:48:08 -75.62, -89.39 59.91 2.65 20
6 12/15/2011 22:37:28 76.86, 82.34 118.71 12/15/2011 22:38:25 76.86, 82.33 118.67 0.31 57
7 12/18/2011 13:19:49 61.46,-160.90 133.31 12/18/2011 13:18:36 61.64,-162.04 133.75 63.67 73
8 12/18/2011 14:04:46 -76.27, 28.56 60.48 12/18/2011 14:04:43 -76.28, 28.61 60.49 1.37 3
9 12/18/2011 14:53:12 78.95,-152.23 116.38 12/18/2011 14:54:26 78.84,-151.91 116.29 14.11 74
10 12/21/2011 05:32:10 75.37, -25.92 120.61 12/21/2011 05:31:07 75.38, -25.87 120.66 1.22 63




NCC Satellite Simultaneous Nadir Overpasses (SNOs) Prediction Service
